FLOCK 2K-03 (42850 NORAD) Tracking and Keplerian Element Data

This shows tracking and keplerian element data for the satellite.

Feedback or suggestion? Click here.




ElementValue
Catalog42850
NameFLOCK 2K-03
Epoch Orbit3280
Epoch Day45.5306163
Epoch Year2018
RAAN308.2798
Inclination96.9925
Eccentricity0.0010444
Argument of Perigee188.9199
Mean Anonmoly171.1862
Mean Motion15.35620888
Decay Rate7.255E-05
L11 42850U 17042AB 18045.53061630 .00007255 00000-0 21132-3 0 9996
L22 42850 96.9925 308.2798 0010444 188.9199 171.1862 15.35620888 32801

Live tracking and technical data element details for FLOCK 2K-03 (NORAD 42850). FLOCK 2K-03 can be tracked NOW for your location showing map with azimuth and elevation plus other details from your city location.

Track the satellite on the map from your city or location and see movement details for azimuth, elevation, latitude, longitude, range, height, and movement on the map or in text.







IsCatalogInMostPopularTable: catalog: 42850, numindb: 141
Update: records affected: 1



GetName: 42850 FLOCK 2K-03

Hit Count: updated at: Sun, 16 Dec 2018 11:47:52 GMT